User: anonymous   Login
Location: Unspecified
(0.0000°N, 0.0000°E)
Time: 04:55:04
(UTC+00:00)
Language:

Aussat K3 - Orbit

View from above orbital plane
View from above orbital plane
View from above satellite
View from above satellite

Ground track
Ground track

The orbit data is extracted from the following two-line orbital elements,

1 18350U 87078A   16204.47029188 +.00000028 +00000-0 +00000-0 0  9999
2 18350 014.4453 021.5678 0005756 258.9759 062.1804 00.98904937010266
Epoch (UTC): 22 July 2016 11:17:13
Eccentricity: 0.0005756
inclination: 14.4453°
perigee height: 36149 km
apogee height: 36198 km
right ascension of ascending node: 21.5678°
argument of perigee: 258.9759°
revolutions per day: 0.98904937
mean anomaly at epoch: 62.1804°
orbit number at epoch: 1026

The dashed part of the orbit path shows where the satellite is in the earth's shadow,  

DLR